Location: Little Baddow
(51.7333°N, 0.5667°E)
Time: 06:13:38
(UTC+00:00)

Cosmos 2123 Rocket - Pass Details

Date: 08 November 2025
Orbit: 960 x 991 km, 82.9° (Epoch: 11 December)

Event Time Altitude Azimuth Distance (km) Brightness Sun altitude
Rises 05:35:35 0° 207° (SSW) 3,660 6.8 -13.9°
Reaches altitude 10° 05:38:11 10° 212° (SSW) 2,712 6.1 -13.5°
Maximum altitude 05:44:11 50° 287° (WNW) 1,224 4.1 -12.6°
Drops below altitude 10° 05:50:13 10° 2° (N) 2,713 6.2 -11.7°
Sets 05:52:49 0° 8° (N) 3,661 7.0 -11.3°
